This demonstration page uses our WeatherBlox Daily Observations layout. Learn more.

Left ArrowRight Arrow

Hourly Observations for June 2, 2021

Temp ( °F °C ) Dew Point ( °F °C ) Humidity (%) Winds ( mph kmh ) Pressure ( in mb ) Visibility ( mi km ) Precip ( " mm )
12:15 am 00:15 Clear 54 12.3 49 9.6 84 84 S 6 9 30.07 1018 10 16 N/A
12:35 am 00:35 Clear 55 12.6 49 9.5 82 82 S 5 7 30.07 1018 10 16 N/A
12:55 am 00:55 Mostly Cloudy 55 12.6 49 9.6 82 82 SE 5 7 30.08 1019 10 16 N/A
1:15 am 01:15 Mostly Cloudy 55 12.9 50 10 83 83 SE 5 7 30.06 1018 10 16 N/A
1:35 am 01:35 Partly Cloudy 57 13.7 51 10.5 81 81 SSE 5 7 30.05 1018 10 16 N/A
1:55 am 01:55 Partly Cloudy 55 12.7 51 10.7 88 88 S 5 7 30.06 1018 10 16 N/A
2:15 am 02:15 Clear 55 12.5 52 11 91 91 S 3 6 30.05 1018 10 16 N/A
2:35 am 02:35 Clear 53 11.9 51 10.7 92 92 N N/A 30.04 1017 10 16 N/A
2:55 am 02:55 Clear 53 11.5 51 10.7 95 95 N N/A 30.05 1018 10 16 N/A
3:15 am 03:15 Clear 52 10.9 50 9.9 94 94 N N/A 30.04 1017 10 16 N/A
3:35 am 03:35 Clear 50 10 49 9.5 97 97 N N/A 30.06 1018 10 16 N/A
3:55 am 03:55 Clear 50 10.1 49 9.6 97 97 N N/A 30.05 1018 10 16 N/A
4:15 am 04:15 Clear 49 9.5 48 8.9 96 96 N N/A 30.06 1018 10 16 N/A
4:35 am 04:35 Clear 49 9.5 48 9 97 97 N N/A 30.06 1018 10 16 N/A
4:55 am 04:55 Clear 48 9 47 8.3 95 95 E 3 6 30.06 1018 10 16 N/A
5:15 am 05:15 Clear 48 9 47 8.5 97 97 NE 3 6 30.06 1018 7 11 N/A
5:35 am 05:35 Clear 48 8.8 47 8.3 97 97 N N/A 30.06 1018 10 16 N/A
5:55 am 05:55 Clear 48 8.7 47 8.1 96 96 NNE 3 6 30.06 1018 10 16 N/A
6:15 am 06:15 Sunny with Mist and Fog 48 8.8 47 8.3 97 97 N N/A 30.06 1018 5 8 N/A
6:35 am 06:35 Sunny 47 8.6 47 8.1 97 97 N N/A 30.06 1018 7 11 N/A
6:55 am 06:55 Sunny 49 9.6 48 9.1 97 97 N N/A 30.05 1018 10 16 N/A
7:15 am 07:15 Sunny 51 10.8 50 10.1 95 95 N N/A 30.04 1017 7 11 N/A
7:35 am 07:35 Sunny 54 12.2 52 11.3 94 94 N N/A 30.03 1017 7 11 N/A
7:55 am 07:55 Sunny 57 13.7 55 12.5 93 93 N N/A 30.02 1017 7 11 N/A
8:15 am 08:15 Sunny 59 14.9 56 13.4 91 91 N N/A 30.01 1016 10 16 N/A
8:35 am 08:35 Sunny 60 15.5 57 13.7 89 89 N N/A 30.00 1016 10 16 N/A
8:55 am 08:55 Sunny 62 16.4 57 13.7 84 84 N N/A 29.99 1016 10 16 N/A
9:15 am 09:15 Sunny 63 17.3 58 14.2 82 82 N N/A 29.99 1015 10 16 N/A
9:35 am 09:35 Sunny 65 18.3 58 14.3 78 78 N N/A 29.98 1015 10 16 N/A
9:55 am 09:55 Sunny 66 19.1 57 13.8 72 72 N N/A 29.97 1015 10 16 N/A
10:15 am 10:15 Sunny 67 19.5 55 12.6 65 65 N N/A 29.97 1015 10 16 N/A
10:35 am 10:35 Sunny 68 20.2 53 11.9 59 59 N N/A 29.96 1015 10 16 N/A
10:55 am 10:55 Sunny 69 20.3 55 12.5 61 61 N N/A 29.96 1015 10 16 N/A
11:15 am 11:15 Sunny 69 20.8 51 10.5 52 52 N N/A 29.95 1014 10 16 N/A
11:35 am 11:35 Sunny 70 21.3 46 7.7 42 42 N N/A 29.94 1014 10 16 N/A
11:55 am 11:55 Sunny 72 22 48 8.9 43 43 ESE 8 13 29.93 1014 10 16 N/A
12:15 pm 12:15 Sunny 72 22.1 46 7.6 39 39 SSW 3 6 29.93 1014 10 16 N/A
12:35 pm 12:35 Sunny 72 22.2 45 7.2 38 38 N N/A 29.93 1014 10 16 N/A
12:55 pm 12:55 Sunny 73 22.5 46 7.7 39 39 S 5 7 29.93 1014 10 16 N/A
1:15 pm 13:15 Sunny 73 22.6 44 6.6 36 36 SSE 3 6 29.93 1014 10 16 N/A
1:35 pm 13:35 Sunny 73 23 46 7.9 38 38 SE 5 7 29.92 1013 10 16 N/A
1:55 pm 13:55 Sunny 74 23.1 46 7.7 37 37 SSE 7 11 29.92 1013 10 16 N/A
2:15 pm 14:15 Sunny 74 23.1 43 6.2 34 34 N N/A 29.92 1013 10 16 N/A
2:35 pm 14:35 Sunny 74 23.4 44 6.9 35 35 N N/A 29.90 1013 10 16 N/A
2:55 pm 14:55 Partly Cloudy 74 23.5 45 7.4 36 36 SW 3 6 29.90 1013 10 16 N/A
3:15 pm 15:15 Partly Cloudy 75 23.9 44 6.5 33 33 SE 3 6 29.90 1012 10 16 N/A
3:35 pm 15:35 Sunny 75 23.7 44 6.7 34 34 ESE 6 9 29.89 1012 10 16 N/A
3:55 pm 15:55 Sunny 75 24.1 45 7.3 34 34 N N/A 29.89 1012 10 16 N/A
4:15 pm 16:15 Sunny 76 24.2 44 6.5 32 32 SSW 6 9 29.88 1012 10 16 N/A
4:35 pm 16:35 Sunny 75 24.1 44 6.6 33 33 NNW 5 7 29.87 1011 10 16 N/A
4:55 pm 16:55 Sunny 76 24.4 43 6.1 31 31 SSW 5 7 29.86 1011 10 16 N/A
5:15 pm 17:15 Sunny 76 24.5 44 6.8 32 32 SSE 8 13 29.85 1011 10 16 N/A
5:35 pm 17:35 Sunny 76 24.5 44 6.6 32 32 N N/A 29.84 1011 10 16 N/A
5:55 pm 17:55 Sunny 76 24.6 46 7.9 35 35 SSE 7 11 29.84 1011 10 16 N/A
6:15 pm 18:15 Sunny 76 24.6 45 7 32 32 SSE 3 6 29.84 1011 10 16 N/A
6:35 pm 18:35 Sunny 76 24.6 44 6.8 32 32 N N/A 29.84 1011 10 16 N/A
6:55 pm 18:55 Sunny 76 24.4 45 7 33 33 ESE 3 6 29.85 1011 10 16 N/A
7:15 pm 19:15 Sunny 75 23.9 47 8.2 37 37 SE 5 7 29.85 1011 10 16 N/A
7:35 pm 19:35 Sunny 75 23.9 46 7.7 36 36 SE 6 9 29.85 1011 10 16 N/A
7:55 pm 19:55 Sunny 73 22.6 49 9.3 43 43 SSE 5 7 29.86 1011 10 16 N/A
8:15 pm 20:15 Sunny 71 21.8 51 10.5 49 49 SE 5 7 29.87 1011 10 16 N/A
8:35 pm 20:35 Sunny 70 21.1 47 8.4 44 44 SE 7 11 29.87 1012 10 16 N/A
8:55 pm 20:55 Sunny 68 20 48 8.8 49 49 SE 5 7 29.88 1012 10 16 N/A
9:15 pm 21:15 Clear 66 18.8 48 9 53 53 SSE 6 9 29.90 1013 10 16 N/A
9:35 pm 21:35 Clear 65 18.4 48 9.1 55 55 SE 5 7 29.91 1013 10 16 N/A
9:55 pm 21:55 Clear 64 17.8 48 9.1 57 57 SSE 6 9 29.91 1013 10 16 N/A
10:15 pm 22:15 Clear 64 17.9 48 8.9 56 56 SSE 5 7 29.92 1013 10 16 N/A
10:35 pm 22:35 Clear 63 17.1 49 9.2 60 60 SSE 7 11 29.93 1013 10 16 N/A
10:55 pm 22:55 Clear 61 16 49 9.5 66 66 S 6 9 29.95 1014 10 16 N/A
11:15 pm 23:15 Clear 60 15.3 49 9.4 68 68 S 8 13 29.95 1014 10 16 N/A
11:35 pm 23:35 Clear 59 15 48 9.1 68 68 S 7 11 29.96 1014 10 16 N/A
11:55 pm 23:55 Clear 59 14.9 48 9 68 68 S 7 11 29.96 1014 10 16 N/A

Powered by AerisWeather